Location: Unspecified
(0.0000°N, 0.0000°E)
Time: 21:28:42
(UTC+00:00)

deb Kosmos-1275 - Pass Details

Date: 08 March 2026
Orbit: 924 x 994 km, 82.9° (Epoch: 11 April)

Event Time Altitude Azimuth Distance (km) Brightness Sun altitude
Rises 19:02:38 0° 348° (NNW) 3,608 ? -12.9°
Reaches altitude 10° 19:05:08 10° 344° (NNW) 2,675 ? -13.6°
Maximum altitude 19:11:07 56° 267° (W) 1,138 ? -15.1°
Drops below altitude 10° 19:17:14 10° 190° (S) 2,731 ? -16.6°
Sets 19:19:49 0° 185° (S) 3,689 ? -17.2°
